| time (UTC) | temp F | wind direction | speed knots | gust knots | rain 1hr in | rain 24hr in | rain mn in | humidity % | barometer mb |
| 20260503185046 | 63 | 116 | 1.7 | 7.0 | 0.00 | 0.00 | 0.00 | 33 | 1018.2 |
| 20260503185032 | 63 | 269 | 1.7 | 5.2 | 0.00 | 0.00 | 0.00 | 49 | 1016.9 |
| 20260503184042 | 62 | 278 | 1.7 | 5.2 | 0.00 | 0.00 | 0.00 | 37 | 1017.8 |
| 20260503183541 | 62 | 233 | 2.6 | 6.1 | 0.00 | 0.00 | 0.00 | 40 | 1017.3 |
| 20260503183041 | 62 | 104 | 2.6 | 6.1 | 0.00 | 0.00 | 0.00 | 44 | 1017.1 |
| 20260503182537 | 63 | 267 | 1.7 | 6.1 | 0.00 | 0.00 | 0.00 | 42 | 1017.6 |
| 20260503182038 | 62 | 200 | 2.6 | 7.8 | 0.00 | 0.00 | 0.00 | 42 | 1017.8 |
| 20260503181537 | 61 | 221 | 2.6 | 7.8 | 0.00 | 0.00 | 0.00 | 42 | 1017.8 |
| 20260503181037 | 62 | 207 | 1.7 | 5.2 | 0.00 | 0.00 | 0.00 | 40 | 1017.7 |
| 20260503180537 | 61 | 108 | 1.7 | 5.2 | 0.00 | 0.00 | 0.00 | 36 | 1018.3 |
| 20260503180037 | 61 | 347 | 2.6 | 7.8 | 0.00 | 0.00 | 0.00 | 42 | 1018.5 |
| 20260503175537 | 61 | 293 | 3.5 | 9.6 | 0.00 | 0.00 | 0.00 | 37 | 1018.6 |
| 20260503175037 | 61 | 286 | 3.5 | 9.6 | 0.00 | 0.00 | 0.00 | 42 | 1017.8 |
| 20260503174537 | 61 | 237 | 2.6 | 7.0 | 0.00 | 0.00 | 0.00 | 42 | 1017.1 |
| 20260503174256 | 61 | 179 | 1.7 | 6.1 | 0.00 | 0.00 | 0.00 | 44 | 1018.0 |
| 20260503173535 | 61 | 208 | 2.6 | 6.1 | 0.00 | 0.00 | 0.00 | 40 | 1018.4 |
| 20260503173037 | 61 | 189 | 1.7 | 6.1 | 0.00 | 0.00 | 0.00 | 42 | 1018.5 |
| 20260503172538 | 61 | 217 | 1.7 | 5.2 | 0.00 | 0.00 | 0.00 | 42 | 1018.5 |
| 20260503172037 | 61 | 95 | 1.7 | 5.2 | 0.00 | 0.00 | 0.00 | 43 | 1018.4 |
| 20260503171537 | 61 | 224 | 1.7 | 5.2 | 0.00 | 0.00 | 0.00 | 51 | 1018.1 |
| 20260503171037 | 60 | 178 | 1.7 | 5.2 | 0.00 | 0.00 | 0.00 | 47 | 1018.0 |
| 20260503170537 | 60 | 175 | 2.6 | 8.7 | 0.00 | 0.00 | 0.00 | 42 | 1018.7 |
| 20260503150532 | 55 | 315 | 2.6 | 7.8 | 0.00 | 0.00 | 0.00 | 58 | 1019.0 |
| 20260503150251 | 55 | 236 | 2.6 | 7.0 | 0.00 | 0.00 | 0.00 | 57 | 1018.8 |
| 20260503140249 | 51 | 317 | 2.6 | 7.0 | 0.00 | 0.00 | 0.00 | 56 | 1019.0 |
| 20260503131022 | 48 | 307 | 0.9 | 2.6 | 0.00 | 0.00 | 0.00 | 67 | 1018.7 |
| 20260503131001 | 48 | 0 | 0.9 | 2.6 | 0.00 | 0.00 | 0.00 | 66 | 1019.0 |
| 20260503130446 | 46 | 279 | 1.7 | 4.3 | 0.00 | 0.00 | 0.00 | 69 | 1018.6 |
| 20260503130416 | 47 | 338 | 0.9 | 3.5 | 0.00 | 0.00 | 0.00 | 67 | 1018.7 |
| 20260503110736 | 33 | 88 | 0.9 | 1.7 | 0.00 | 0.00 | 0.00 | 95 | 1016.7 |
| 20260503110228 | 33 | 80 | 0.9 | 1.7 | 0.00 | 0.00 | 0.00 | 95 | 1016.7 |
| 20260503100204 | 33 | 100 | 0.0 | 1.7 | 0.00 | 0.00 | 0.00 | 95 | 1016.1 |
| 20260503090418 | 33 | 17 | 0.0 | 1.7 | 0.00 | 0.00 | 0.00 | 95 | 1016.1 |
| 20260503081404 | 33 | 82 | 0.0 | 0.9 | 0.00 | 0.00 | 0.00 | 94 | 1016.3 |
| 20260503080902 | 33 | 19 | 0.0 | 1.7 | 0.00 | 0.00 | 0.00 | 93 | 1016.3 |
| 20260503080404 | 33 | 66 | 0.0 | 1.7 | 0.00 | 0.00 | 0.00 | 94 | 1016.2 |
| 20260503072850 | 33 | 0 | 0.0 | 0.0 | 0.00 | 0.00 | 0.00 | 93 | 1016.4 |
| 20260503072351 | 34 | 0 | 0.0 | 0.9 | 0.00 | 0.00 | 0.00 | 93 | 1016.4 |
| 20260503071850 | 34 | 0 | 0.0 | 0.9 | 0.00 | 0.00 | 0.00 | 93 | 1016.4 |
| 20260503071353 | 34 | 69 | 0.0 | 0.9 | 0.00 | 0.00 | 0.00 | 93 | 1016.4 |
| 20260503070851 | 34 | 0 | 0.0 | 0.9 | 0.00 | 0.00 | 0.00 | 92 | 1016.5 |
| 20260503070350 | 34 | 68 | 0.0 | 0.9 | 0.00 | 0.00 | 0.00 | 93 | 1016.5 |
| 20260503055056 | 34 | 0 | 0.0 | 0.0 | 0.00 | 0.00 | 0.00 | 92 | 1016.7 |
| 20260503054336 | 34 | 0 | 0.0 | 0.9 | 0.00 | 0.00 | 0.00 | 92 | 1016.8 |
| 20260503053830 | 34 | 0 | 0.0 | 0.9 | 0.00 | 0.00 | 0.00 | 92 | 1016.8 |
| 20260503053322 | 34 | 37 | 0.0 | 0.9 | 0.00 | 0.00 | 0.00 | 91 | 1016.9 |
| 20260503052822 | 35 | 0 | 0.0 | 0.9 | 0.00 | 0.00 | 0.00 | 92 | 1016.8 |
| 20260503052322 | 35 | 0 | 0.0 | 0.0 | 0.00 | 0.00 | 0.00 | 92 | 1016.8 |
| 20260503051821 | 35 | 0 | 0.0 | 0.9 | 0.00 | 0.00 | 0.00 | 91 | 1016.8 |
| 20260503051321 | 35 | 0 | 0.0 | 1.7 | 0.00 | 0.00 | 0.00 | 91 | 1016.8 |
| 20260503050821 | 35 | 68 | 0.0 | 1.7 | 0.00 | 0.00 | 0.00 | 91 | 1016.9 |
| 20260503050319 | 35 | 64 | 0.0 | 1.7 | 0.00 | 0.00 | 0.00 | 91 | 1016.9 |
| 20260503045818 | 35 | 0 | 0.9 | 1.7 | 0.00 | 0.00 | 0.00 | 91 | 1016.9 |
| 20260503045315 | 35 | 7 | 0.9 | 1.7 | 0.00 | 0.00 | 0.00 | 91 | 1016.9 |
| 20260503045046 | 35 | 75 | 0.9 | 1.7 | 0.00 | 0.00 | 0.00 | 91 | 1016.8 |
| 20260503044312 | 35 | 0 | 0.9 | 1.7 | 0.00 | 0.00 | 0.00 | 91 | 1016.9 |
| 20260503044036 | 35 | 0 | 0.9 | 1.7 | 0.00 | 0.00 | 0.00 | 91 | 1016.9 |
| 20260503043306 | 35 | 66 | 0.0 | 0.9 | 0.00 | 0.00 | 0.00 | 91 | 1016.9 |
| 20260503042806 | 36 | 1 | 0.0 | 1.7 | 0.00 | 0.00 | 0.00 | 91 | 1016.9 |
| 20260503042307 | 36 | 0 | 0.9 | 1.7 | 0.00 | 0.00 | 0.00 | 91 | 1016.8 |
| 20260503041807 | 36 | 79 | 0.9 | 1.7 | 0.00 | 0.00 | 0.00 | 91 | 1016.9 |
| 20260503041307 | 36 | 71 | 0.0 | 1.7 | 0.00 | 0.00 | 0.00 | 90 | 1017.0 |
| 20260503040806 | 36 | 0 | 0.0 | 1.7 | 0.00 | 0.00 | 0.00 | 90 | 1017.0 |
| 20260503040307 | 36 | 0 | 0.0 | 0.9 | 0.00 | 0.00 | 0.00 | 89 | 1017.0 |
| 20260503035805 | 36 | 20 | 0.9 | 1.7 | 0.00 | 0.00 | 0.00 | 89 | 1017.1 |
| 20260503035258 | 36 | 0 | 0.9 | 2.6 | 0.00 | 0.00 | 0.00 | 89 | 1017.1 |
| 20260503034754 | 36 | 78 | 0.9 | 2.6 | 0.00 | 0.00 | 0.00 | 88 | 1017.1 |
| 20260503034255 | 36 | 65 | 0.9 | 1.7 | 0.00 | 0.00 | 0.00 | 87 | 1017.1 |
| 20260503034019 | 36 | 64 | 0.9 | 1.7 | 0.00 | 0.00 | 0.00 | 87 | 1017.1 |
| 20260503033252 | 36 | 0 | 0.9 | 1.7 | 0.00 | 0.00 | 0.00 | 87 | 1017.1 |
| 20260503032752 | 37 | 83 | 0.9 | 1.7 | 0.00 | 0.00 | 0.00 | 86 | 1017.2 |
| 20260503032252 | 37 | 0 | 0.0 | 0.9 | 0.00 | 0.00 | 0.00 | 86 | 1017.2 |
| 20260503032020 | 37 | 0 | 0.0 | 1.7 | 0.00 | 0.00 | 0.00 | 85 | 1017.2 |
| 20260503031251 | 37 | 0 | 0.9 | 1.7 | 0.00 | 0.00 | 0.00 | 86 | 1017.2 |
| 20260503030752 | 37 | 66 | 0.0 | 1.7 | 0.00 | 0.00 | 0.00 | 86 | 1017.2 |
| 20260503030252 | 37 | 0 | 0.0 | 0.0 | 0.00 | 0.00 | 0.00 | 85 | 1017.2 |
| 20260503025752 | 37 | 0 | 0.0 | 0.9 | 0.00 | 0.00 | 0.00 | 84 | 1017.3 |
| 20260503025252 | 38 | 72 | 0.0 | 0.9 | 0.00 | 0.00 | 0.00 | 83 | 1017.3 |
| 20260503024752 | 38 | 0 | 0.0 | 0.0 | 0.00 | 0.00 | 0.00 | 83 | 1017.3 |
| 20260503024253 | 38 | 0 | 0.0 | 0.9 | 0.00 | 0.00 | 0.00 | 83 | 1017.3 |
| 20260503023752 | 38 | 73 | 1.7 | 2.6 | 0.00 | 0.00 | 0.00 | 83 | 1017.3 |
| 20260503023252 | 38 | 55 | 0.9 | 2.6 | 0.00 | 0.00 | 0.00 | 83 | 1017.3 |
| 20260503022750 | 39 | 57 | 0.9 | 1.7 | 0.00 | 0.00 | 0.00 | 81 | 1017.3 |
| 20260503022249 | 39 | 79 | 0.9 | 1.7 | 0.00 | 0.00 | 0.00 | 80 | 1017.3 |
| 20260503022008 | 39 | 72 | 0.9 | 1.7 | 0.00 | 0.00 | 0.00 | 79 | 1017.4 |
| 20260503021246 | 39 | 52 | 0.9 | 1.7 | 0.00 | 0.00 | 0.00 | 79 | 1017.3 |
| 20260503021016 | 40 | 72 | 0.0 | 1.7 | 0.00 | 0.00 | 0.00 | 78 | 1017.3 |
| 20260503020247 | 40 | 88 | 0.9 | 1.7 | 0.00 | 0.00 | 0.00 | 79 | 1017.3 |
| 20260503015748 | 40 | 64 | 0.9 | 1.7 | 0.00 | 0.00 | 0.00 | 78 | 1017.3 |
| 20260503015508 | 40 | 70 | 0.9 | 1.7 | 0.00 | 0.00 | 0.00 | 78 | 1017.3 |
| 20260503014746 | 41 | 60 | 0.9 | 1.7 | 0.00 | 0.00 | 0.00 | 77 | 1017.3 |
| 20260503014247 | 41 | 71 | 0.9 | 1.7 | 0.00 | 0.00 | 0.00 | 76 | 1017.2 |
| 20260503013747 | 42 | 53 | 0.9 | 1.7 | 0.00 | 0.00 | 0.00 | 74 | 1017.2 |
| 20260503013246 | 42 | 71 | 1.7 | 1.7 | 0.00 | 0.00 | 0.00 | 74 | 1017.2 |
| 20260503012741 | 42 | 56 | 0.9 | 1.7 | 0.00 | 0.00 | 0.00 | 73 | 1017.2 |
| 20260503012240 | 42 | 0 | 0.9 | 1.7 | 0.00 | 0.00 | 0.00 | 71 | 1017.2 |
| 20260503012001 | 43 | 46 | 0.9 | 1.7 | 0.00 | 0.00 | 0.00 | 68 | 1017.2 |
| 20260503011234 | 43 | 15 | 0.9 | 2.6 | 0.00 | 0.00 | 0.00 | 66 | 1017.2 |
| 20260503010736 | 44 | 62 | 0.9 | 2.6 | 0.00 | 0.00 | 0.00 | 65 | 1017.1 |
| 20260503010236 | 44 | 20 | 0.0 | 1.7 | 0.00 | 0.00 | 0.00 | 63 | 1017.0 |
| 20260503005736 | 44 | 0 | 0.0 | 1.7 | 0.00 | 0.00 | 0.00 | 62 | 1016.9 |
| 20260503005455 | 45 | 357 | 0.0 | 1.7 | 0.00 | 0.00 | 0.00 | 59 | 1017.1 |
| 20260503004736 | 45 | 0 | 0.0 | 3.5 | 0.00 | 0.00 | 0.00 | 59 | 1017.0 |
| 20260503004236 | 46 | 8 | 0.9 | 3.5 | 0.00 | 0.00 | 0.00 | 57 | 1017.2 |
| 20260503003736 | 46 | 294 | 0.9 | 3.5 | 0.00 | 0.00 | 0.00 | 55 | 1017.3 |
| 20260503003454 | 46 | 316 | 1.7 | 3.5 | 0.00 | 0.00 | 0.00 | 54 | 1017.3 |
| 20260503002735 | 47 | 0 | 1.7 | 4.3 | 0.00 | 0.00 | 0.00 | 53 | 1017.4 |
| 20260503002234 | 47 | 293 | 0.9 | 4.3 | 0.00 | 0.00 | 0.00 | 55 | 1017.4 |
| 20260503002006 | 47 | 26 | 0.9 | 4.3 | 0.00 | 0.00 | 0.00 | 55 | 1017.2 |
| 20260503001233 | 47 | 9 | 1.7 | 6.1 | 0.00 | 0.00 | 0.00 | 53 | 1017.4 |
| 20260503001002 | 47 | 302 | 2.6 | 6.1 | 0.00 | 0.00 | 0.00 | 52 | 1017.4 |
| 20260503000234 | 48 | 40 | 2.6 | 7.0 | 0.00 | 0.00 | 0.00 | 50 | 1017.5 |
| 20260502235734 | 48 | 3 | 2.6 | 7.0 | 0.00 | 0.00 | 0.00 | 50 | 1017.5 |
| 20260502235233 | 48 | 28 | 2.6 | 6.1 | 0.00 | 0.00 | 0.00 | 51 | 1017.5 |
| 20260502234734 | 48 | 334 | 1.7 | 6.1 | 0.00 | 0.00 | 0.00 | 49 | 1017.6 |
| 20260502234500 | 48 | 71 | 1.7 | 4.3 | 0.00 | 0.00 | 0.00 | 50 | 1017.5 |
| 20260502233734 | 48 | 88 | 2.6 | 4.3 | 0.00 | 0.00 | 0.00 | 50 | 1017.4 |
| 20260502233232 | 49 | 335 | 2.6 | 7.8 | 0.00 | 0.00 | 0.00 | 48 | 1017.6 |
| 20260502232731 | 49 | 82 | 2.6 | 7.8 | 0.00 | 0.00 | 0.00 | 52 | 1017.4 |
| 20260502232459 | 49 | 243 | 2.6 | 7.0 | 0.00 | 0.00 | 0.00 | 46 | 1017.7 |
| 20260502231728 | 49 | 16 | 2.6 | 7.0 | 0.00 | 0.00 | 0.00 | 46 | 1017.5 |
| 20260502231229 | 49 | 328 | 2.6 | 7.0 | 0.00 | 0.00 | 0.00 | 47 | 1017.6 |
| 20260502230728 | 49 | 31 | 2.6 | 8.7 | 0.00 | 0.00 | 0.00 | 46 | 1017.6 |
| 20260502230232 | 50 | 342 | 2.6 | 8.7 | 0.00 | 0.00 | 0.00 | 47 | 1017.8 |
| 20260502225956 | 50 | 11 | 2.6 | 6.1 | 0.00 | 0.00 | 0.00 | 48 | 1017.6 |
| 20260502225228 | 49 | 93 | 2.6 | 6.1 | 0.00 | 0.00 | 0.00 | 45 | 1017.5 |
| 20260502224728 | 49 | 26 | 2.6 | 6.1 | 0.00 | 0.00 | 0.00 | 45 | 1017.5 |
| 20260502224228 | 49 | 57 | 2.6 | 6.1 | 0.00 | 0.00 | 0.00 | 45 | 1017.6 |
| 20260502223953 | 50 | 45 | 2.6 | 7.0 | 0.00 | 0.00 | 0.00 | 47 | 1017.6 |
| 20260502223225 | 50 | 0 | 2.6 | 7.0 | 0.00 | 0.00 | 0.00 | 45 | 1017.7 |
| 20260502222725 | 50 | 38 | 2.6 | 5.2 | 0.00 | 0.00 | 0.00 | 46 | 1017.5 |
| 20260502222227 | 50 | 22 | 3.5 | 7.8 | 0.00 | 0.00 | 0.00 | 45 | 1017.6 |
| 20260502221726 | 50 | 34 | 3.5 | 8.7 | 0.00 | 0.00 | 0.00 | 41 | 1018.0 |
| 20260502221226 | 50 | 296 | 3.5 | 8.7 | 0.00 | 0.00 | 0.00 | 46 | 1017.6 |
| 20260502220728 | 50 | 325 | 3.5 | 7.0 | 0.00 | 0.00 | 0.00 | 44 | 1017.7 |
| 20260502220227 | 51 | 324 | 3.5 | 7.8 | 0.00 | 0.00 | 0.00 | 44 | 1017.5 |
| 20260502215728 | 51 | 26 | 3.5 | 8.7 | 0.00 | 0.00 | 0.00 | 42 | 1017.8 |
| 20260502215227 | 52 | 344 | 2.6 | 8.7 | 0.00 | 0.00 | 0.00 | 42 | 1017.7 |
| 20260502214727 | 52 | 78 | 1.7 | 6.1 | 0.00 | 0.00 | 0.00 | 42 | 1017.9 |
| 20260502214226 | 51 | 312 | 2.6 | 7.0 | 0.00 | 0.00 | 0.00 | 40 | 1017.7 |
| 20260502213726 | 51 | 81 | 2.6 | 7.0 | 0.00 | 0.00 | 0.00 | 42 | 1017.6 |
| 20260502213224 | 51 | 249 | 2.6 | 6.1 | 0.00 | 0.00 | 0.00 | 46 | 1017.4 |
| 20260502212723 | 51 | 39 | 2.6 | 6.1 | 0.00 | 0.00 | 0.00 | 40 | 1017.7 |
| 20260502212219 | 51 | 298 | 2.6 | 7.8 | 0.00 | 0.00 | 0.00 | 43 | 1017.9 |
| 20260502211722 | 51 | 358 | 3.5 | 7.8 | 0.00 | 0.00 | 0.00 | 42 | 1017.7 |
| 20260502211224 | 51 | 24 | 3.5 | 7.8 | 0.00 | 0.00 | 0.00 | 42 | 1017.6 |
| 20260502210725 | 51 | 11 | 3.5 | 7.8 | 0.00 | 0.00 | 0.00 | 42 | 1017.6 |
| 20260502210222 | 51 | 36 | 4.3 | 8.7 | 0.00 | 0.00 | 0.00 | 40 | 1017.7 |
| 20260502205723 | 51 | 86 | 3.5 | 8.7 | 0.00 | 0.00 | 0.00 | 44 | 1017.3 |
| 20260502205448 | 52 | 304 | 3.5 | 7.0 | 0.00 | 0.00 | 0.00 | 39 | 1017.7 |
| 20260502204722 | 52 | 313 | 2.6 | 7.0 | 0.00 | 0.00 | 0.00 | 44 | 1017.5 |
| 20260502204223 | 51 | 66 | 2.6 | 7.8 | 0.00 | 0.00 | 0.00 | 46 | 1017.8 |
| 20260502203723 | 51 | 272 | 3.5 | 7.8 | 0.00 | 0.00 | 0.00 | 42 | 1017.9 |
| 20260502203223 | 51 | 268 | 3.5 | 7.8 | 0.00 | 0.00 | 0.00 | 39 | 1017.9 |
| 20260502202722 | 52 | 0 | 3.5 | 7.8 | 0.00 | 0.00 | 0.00 | 40 | 1018.0 |
| 20260502202217 | 52 | 36 | 3.5 | 7.0 | 0.00 | 0.00 | 0.00 | 40 | 1018.0 |
| 20260502201719 | 52 | 287 | 3.5 | 7.0 | 0.00 | 0.00 | 0.00 | 39 | 1018.0 |
| 20260502201216 | 51 | 276 | 2.6 | 6.1 | 0.00 | 0.00 | 0.00 | 36 | 1018.3 |
| 20260502200943 | 51 | 265 | 2.6 | 7.0 | 0.00 | 0.00 | 0.00 | 44 | 1017.7 |
| 20260502200217 | 51 | 312 | 2.6 | 7.0 | 0.00 | 0.00 | 0.00 | 41 | 1017.4 |
| 20260502195717 | 51 | 254 | 2.6 | 9.6 | 0.00 | 0.00 | 0.00 | 50 | 1017.5 |
| 20260502195218 | 51 | 291 | 3.5 | 9.6 | 0.00 | 0.00 | 0.00 | 44 | 1017.8 |
| 20260502194947 | 51 | 93 | 3.5 | 8.7 | 0.00 | 0.00 | 0.00 | 42 | 1018.2 |
| 20260502194217 | 52 | 356 | 2.6 | 8.7 | 0.00 | 0.00 | 0.00 | 41 | 1018.0 |
| 20260502193717 | 53 | 303 | 2.6 | 5.2 | 0.00 | 0.00 | 0.00 | 41 | 1017.7 |
| 20260502193213 | 53 | 119 | 2.6 | 7.8 | 0.00 | 0.00 | 0.00 | 42 | 1017.8 |
| 20260502192942 | 53 | 49 | 3.5 | 7.8 | 0.00 | 0.00 | 0.00 | 41 | 1018.0 |
| 20260502192435 | 52 | 24 | 3.5 | 7.8 | 0.00 | 0.00 | 0.00 | 40 | 1018.5 |
| 20260502191711 | 52 | 282 | 2.6 | 7.8 | 0.00 | 0.00 | 0.00 | 42 | 1018.4 |
| 20260502191432 | 52 | 347 | 2.6 | 8.7 | 0.00 | 0.00 | 0.00 | 45 | 1017.9 |
| 20260502190933 | 52 | 159 | 3.5 | 8.7 | 0.00 | 0.00 | 0.00 | 41 | 1018.0 |
| 20260502190209 | 52 | 241 | 3.5 | 7.8 | 0.00 | 0.00 | 0.00 | 46 | 1018.4 |
| 20260502185708 | 52 | 134 | 3.5 | 11.3 | 0.00 | 0.00 | 0.00 | 41 | 1018.4 |